Hourly Weather Roundup
Issued by NWS Central Illinois

Home | Current Version | Previous Version | Text Only | Print | Product List | Glossary Off
Versions: 1 2 3 4 5 6 7 8 9 10 11 12 13 14 15 16 17 18 19 20 21 22 23 24 25 26 27 28 29 30 31 32 33 34 35 36 37 38 39 40 41 42 43 44 45 46 47 48 49 50

000
NZUS43 KILX 180010
HWRILX

Area Weather Roundup
National Weather Service Lincoln IL
700 PM CDT THU AUG 17 2017

NOTE:  "FAIR" indicates few or no clouds below 12,000 feet, with
       no sigificant weather and/or obstructions to visibility.


CITY           SKY/WX    TMP DP  RH WIND       PRES   REMARKS
Bloomington    PTCLDY    79  67  66 SW13      29.82S HX  81
6HR MIN TEMP:  77; 6HR MAX TEMP:  82;

Champaign      MOCLDY    81  67  62 W9        29.83R HX  83
6HR MIN TEMP:  79; 6HR MAX TEMP:  84;

Danville       MOCLDY    77  67  71 SW7       29.80S
6HR MIN TEMP:  77; 6HR MAX TEMP:  84;

Decatur        MOCLDY    81  64  56 W14G22    29.83S HX  82
6HR MIN TEMP:  80; 6HR MAX TEMP:  84;

Effingham      PTCLDY    81  73  76 SW5       29.86R HX  86
6HR MIN TEMP:  81; 6HR MAX TEMP:  87;

Flora          PTCLDY    82  72  73 SW6       29.86R HX  86
6HR MIN TEMP:  82; 6HR MAX TEMP:  86;

Galesburg      CLEAR     77  62  59 W13G18    29.83R
6HR MIN TEMP:  77; 6HR MAX TEMP:  83;

Jacksonville   CLEAR     79  65  62 SW8       29.83S HX  81
6HR MIN TEMP:  79; 6HR MAX TEMP:  82;

Lacon          CLEAR     80  64  58 W12       29.79R HX  81
6HR MIN TEMP:  80; 6HR MAX TEMP:  83;

Lawrenceville  CLOUDY    84  70  62 SW12      29.85R HX  88
6HR MIN TEMP:  83; 6HR MAX TEMP:  90;

Litchfield     PTCLDY    80  66  64 W12       29.86S HX  82
6HR MIN TEMP:  79; 6HR MAX TEMP:  84;

$$


CITY           SKY/WX    TMP DP  RH WIND       PRES   REMARKS
Lincoln        CLEAR     82  68  62 SW5       29.82R HX  85
6HR MIN TEMP:  81; 6HR MAX TEMP:  85;

Macomb         PTCLDY    79  64  59 W6        29.84R HX  80
6HR MIN TEMP:  79; 6HR MAX TEMP:  83;

Mattoon        PTCLDY    80  68  66 W5        29.83R HX  83
6HR MIN TEMP:  80; 6HR MAX TEMP:  85;

Mt Carmel AP   MOCLDY    83  70  65 SW8       29.85R HX  86
6HR MIN TEMP:  81; 6HR MAX TEMP:  85;

Olney-Noble AP CLEAR     80  73  78 W5        29.86R HX  84
Paris AP       PTCLDY    80  71  75 SW6       29.84R HX  83
6HR MIN TEMP:  80; 6HR MAX TEMP:  86;

Peoria         MOCLDY    82  66  58 NW10G20   29.80R HX  84
6HR MIN TEMP:  80; 6HR MAX TEMP:  86;

Pontiac        MOCLDY    79  71  77 W5        29.79S HX  82
6HR MIN TEMP:  78; 6HR MAX TEMP:  82;

Rantoul        MOCLDY    82  69  64 SW8       29.82S HX  85
6HR MIN TEMP:  81; 6HR MAX TEMP:  87;

Robinson       CLEAR     79  71  74 SW9       29.85R HX  82
6HR MIN TEMP:  79; 6HR MAX TEMP:  84;

Springfield    CLEAR     81  68  64 W9        29.83S HX  84
6HR MIN TEMP:  81; 6HR MAX TEMP:  84;

Taylorville    CLOUDY    79  67  66 W8        29.85R HX  81
6HR MIN TEMP:  79; 6HR MAX TEMP:  83;

$$

...REGIONAL REPORTS...


CITY           SKY/WX    TMP DP  RH WIND       PRES   REMARKS
Chicago O`Hare MOCLDY    80  64  58 W12       29.72S HX  82
Kankakee       CLOUDY    79  68  69 CALM      29.79S HX  81
Moline         MOCLDY    78  63  59 W16       29.80R HX  80
Mount Sterling CLEAR     79  61  54 W8        29.83S HX  80
Mount Vernon   PTCLDY    81  73  76 SW8       29.86S HX  86
Pittsfield     CLEAR     80  67  62 W8        29.86R HX  83
Quincy         SUNNY     81  60  48 W8        29.84R HX  82
Rockford       MOCLDY    76  65  68 W12       29.75S
$$


CITY           SKY/WX    TMP DP  RH WIND       PRES   REMARKS
Burlington     SUNNY     80  63  55 NW7       29.82R HX  81
Cedar Rapids   CLOUDY    74  64  71 W14G23    29.82R
Des Moines     MOSUNNY   81  59  47 NW17      29.86R HX  81
Kirksville     SUNNY     81  60  48 W12G18    29.88R HX  82
Ottumwa        MOSUNNY   81  60  48 NW15      29.83S HX  82
St Louis       CLOUDY    83  64  52 W13       29.87R HX  84
$$


CITY           SKY/WX    TMP DP  RH WIND       PRES   REMARKS
Terre Haute    CLEAR     81  69  67 SW9       29.83R HX  84
Evansville     CLOUDY    84  70  62 SW15      29.86R HX  88
Indianapolis   MOCLDY    82  68  62 SW13      29.83R HX  85
Lafayette      PTCLDY    78  69  73 W6        29.80R HX  80
Madison        LGT RAIN  69  65  86 W10       29.70R FOG
Milwaukee      MOCLDY    77  64  64 W16G32    29.68R
$$






USA.gov is the U.S. government's official web portal to all federal, state and local government web resources and services.